Location: Melizzano
(41.1500°N, 14.5000°E)
Time: 04:32:36
(UTC+00:00)

Cosmos 2218 Rocket - Pass Details

Date: 11 May 2021
Orbit: 957 x 1005 km, 82.9° (Epoch: 14 June)

Event Time Altitude Azimuth Distance (km) Brightness Sun altitude
Rises 22:09:29 0° 351° (N) 3,689 8.2 -29.7°
Reaches altitude 10° 22:12:00 10° 350° (N) 2,744 7.3 -29.8°
Enters shadow 22:18:17 81° 266° (W) 1,008 3.9 -30.0°
